Simultaneous Nadir Overpasses (SNOs) Predictions

Prediction of SNOs between GOES-17 and METOP-C Satellite Orbit:

Table of predicted SNOs for the next 14.0 days since TLE Epoch: 5/27/2023
Index Date Time (GOES-17) GOES-17 Lat,Lon METOP-C Lat,Lon Distance(km) Time Diff (sec)
1 05/27/2023 16:12:30 -0.00,-104.73 -1.00,-100.39 495.79 80
2 05/29/2023 04:31:29 0.00,-104.70 -0.06,-104.98 31.81 80
3 05/31/2023 16:29:38 -0.01,-104.74 -0.04,-104.53 22.65 80
4 06/03/2023 04:25:18 0.01,-104.70 0.15,-104.14 64.21 80
5 06/04/2023 16:44:07 -0.01,-104.73 0.84,-108.70 451.91 80
6 06/05/2023 16:26:06 -0.01,-104.72 -0.27,-103.70 117.19 80
7 06/07/2023 04:45:06 0.02,-104.68 -0.78,-108.29 410.79 80
8 06/08/2023 04:21:45 0.01,-104.68 0.34,-103.29 158.07 80
9 06/09/2023 16:40:34 -0.01,-104.70 0.71,-107.84 358.21 80
